Tucson, AZ

9:17 AM MST on August 24, 2019 (GMT -0700)
Tucson International

Weather History for KTUS - May, 2019

Change the Weather History Date:

Friday, May 10, 2019

  Actual Average Record
Temperature  
Mean Temperature 73 °F 74 °F  
Max Temperature 81 °F 90 °F 106 °F (1934)
Min Temperature 64 °F 59 °F 39 °F (1930)
Degree Days  
Heating Degree Days 0 0  
Month to date heating degree days 0 3  
Since 1 July heating degree days 1408 1509  
Cooling Degree Days 8 9  
Month to date cooling degree days 70 82  
Year to date cooling degree days 250 236  
Growing Degree Days 21 (Base 50)    
Moisture  
Dew Point 33 °F    
Average Humidity 24    
Maximum Humidity 47    
Minimum Humidity 11    
Precipitation  
Precipitation 0.00 in 0.01 in 0.37 in (1904)
Month to date precipitation 0.00 0.07  
Year to date precipitation 3.81 2.91  
Sea Level Pressure  
Sea Level Pressure 29.72 in    
Wind  
Wind Speed 8 mph (SSW)    
Max Wind Speed 22 mph    
Max Gust Speed 32 mph    
Visibility 10 miles    
Events      
T = Trace of Precipitation, MM = Missing Value Source: NWS Daily Summary

Daily Weather History Graph

Daily Weather History Graph

Search for Another Location

Airport or City:

Astronomy

May. 10, 2019 Rise Set
Actual Time 5:29 AM MST 7:10 PM MST
Civil Twilight 5:03 AM MST 7:37 PM MST
Nautical Twilight 4:31 AM MST 8:09 PM MST
Astronomical Twilight 3:57 AM MST 8:43 PM MST
Moon 10:37 AM MST (5/10) 12:03 AM MST (5/10)
Length of Visible Light 14h 34m
Length of Day
13h 40m
Waxing Crescent, 36% of the Moon is Illuminated
May 10
Waxing Crescent
May 11
First Quarter
May 18
Full
May 26
Last Quarter
Jun 3
New

Hourly Weather History & Observations

Time (MST) Temp. Dew Point Humidity Pressure Visibility Wind Dir Wind Speed Gust Speed Precip Events Conditions
12:53 AM 73.0 °F 28.9 °F 20% 29.66 in 10.0 mi East 10.4 mph 18.4 mph N/A   Mostly Cloudy
1:53 AM 71.1 °F 33.1 °F 25% 29.65 in 10.0 mi East 6.9 mph - N/A   Mostly Cloudy
2:53 AM 71.1 °F 26.1 °F 19% 29.66 in 10.0 mi SSE 13.8 mph - N/A   Mostly Cloudy
3:53 AM 69.1 °F 28.0 °F 22% 29.68 in 10.0 mi SSE 6.9 mph - N/A   Partly Cloudy
4:53 AM 68.0 °F 28.9 °F 23% 29.68 in 10.0 mi ESE 6.9 mph - N/A   Clear
5:53 AM 68.0 °F 30.9 °F 25% 29.69 in 10.0 mi East 9.2 mph - N/A   Partly Cloudy
6:53 AM 69.1 °F 28.0 °F 22% 29.71 in 10.0 mi SE 6.9 mph - N/A   Overcast
7:53 AM 69.1 °F 28.0 °F 22% 29.72 in 10.0 mi South 4.6 mph - N/A   Clear
8:53 AM 72.0 °F 28.9 °F 20% 29.72 in 10.0 mi SSW 6.9 mph - N/A   Partly Cloudy
9:53 AM 75.0 °F 30.9 °F 20% 29.72 in 10.0 mi SSW 12.7 mph 20.7 mph N/A   Clear
10:53 AM 75.0 °F 32.0 °F 21% 29.73 in 10.0 mi Variable 4.6 mph 19.6 mph N/A   Clear
11:53 AM 78.1 °F 33.1 °F 19% 29.70 in 10.0 mi SW 3.5 mph - N/A   Clear
12:53 PM 78.1 °F 30.0 °F 17% 29.68 in 10.0 mi SW 8.1 mph - N/A   Clear
1:53 PM 79.0 °F 34.0 °F 20% 29.68 in 10.0 mi WSW 12.7 mph 24.2 mph N/A   Mostly Cloudy
2:53 PM 81.0 °F 33.1 °F 18% 29.68 in 10.0 mi SW 16.1 mph 27.6 mph N/A   Partly Cloudy
3:53 PM 80.1 °F 32.0 °F 17% 29.68 in 10.0 mi SSW 15.0 mph 26.5 mph N/A   Partly Cloudy
4:53 PM 77.0 °F 30.9 °F 19% 29.71 in 10.0 mi SW 17.3 mph 28.8 mph N/A   Clear
5:53 PM 75.9 °F 37.0 °F 24% 29.72 in 10.0 mi SW 15.0 mph 24.2 mph N/A   Clear
6:53 PM 73.9 °F 36.0 °F 25% 29.72 in 10.0 mi WSW 8.1 mph - N/A   Clear
7:53 PM 72.0 °F 36.0 °F 27% 29.75 in 10.0 mi WSW 3.5 mph - N/A   Clear
8:53 PM 69.1 °F 39.0 °F 33% 29.78 in 10.0 mi West 5.8 mph - N/A   Clear
9:53 PM 66.9 °F 39.0 °F 36% 29.81 in 10.0 mi WSW 4.6 mph - N/A   Clear
10:53 PM 64.9 °F 42.1 °F 43% 29.82 in 10.0 mi West 3.5 mph - N/A   Clear
11:53 PM 64.9 °F 44.1 °F 47% 29.84 in 10.0 mi Calm Calm - N/A   Clear